| time (UTC) | temp F | wind direction | speed MPH | gust MPH | rain 1hr in | rain 24hr in | rain mn in | humidity % | barometer mb |
| 20260903135717 | 77 | 265 | 3.0 | 6.0 | 0.00 | 0.00 | 0.00 | 38 | 1020.4 |
| 20260903134703 | 77 | 274 | 3.0 | 6.0 | 0.00 | 0.00 | 0.00 | 37 | 1020.8 |
| 20260903134156 | 78 | 258 | 3.0 | 4.0 | 0.00 | 0.00 | 0.00 | 37 | 1020.7 |
| 20260903132634 | 79 | 223 | 3.0 | 6.0 | 0.00 | 0.00 | 0.00 | 36 | 1020.8 |
| 20260903125549 | 81 | 283 | 3.0 | 8.0 | 0.00 | 0.00 | 0.00 | 33 | 1020.6 |
| 20260903125042 | 81 | 231 | 3.0 | 7.0 | 0.00 | 0.00 | 0.00 | 33 | 1020.5 |
| 20260903124534 | 81 | 259 | 3.0 | 5.0 | 0.00 | 0.00 | 0.00 | 33 | 1020.4 |
| 20260903120942 | 79 | 227 | 2.0 | 5.0 | 0.00 | 0.00 | 0.00 | 35 | 1020.4 |
| 20260903120435 | 79 | 199 | 3.0 | 7.0 | 0.00 | 0.00 | 0.00 | 35 | 1020.6 |
| 20260903115927 | 79 | 152 | 3.0 | 8.0 | 0.00 | 0.00 | 0.00 | 34 | 1020.8 |
| 20260903114405 | 80 | 231 | 4.0 | 7.0 | 0.00 | 0.00 | 0.00 | 34 | 1021.2 |
| 20260903113857 | 80 | 252 | 2.0 | 4.0 | 0.00 | 0.00 | 0.00 | 35 | 1021.1 |
| 20260903113350 | 79 | 272 | 3.0 | 9.0 | 0.00 | 0.00 | 0.00 | 36 | 1021.2 |
| 20260903112843 | 79 | 221 | 2.0 | 4.0 | 0.00 | 0.00 | 0.00 | 37 | 1021.0 |
| 20260903112335 | 79 | 228 | 3.0 | 7.0 | 0.00 | 0.00 | 0.00 | 36 | 1021.1 |
| 20260903111828 | 80 | 241 | 3.0 | 5.0 | 0.00 | 0.00 | 0.00 | 36 | 1021.2 |
| 20260903110813 | 80 | 215 | 3.0 | 5.0 | 0.00 | 0.00 | 0.00 | 36 | 1021.3 |
| 20260903105251 | 78 | 267 | 2.0 | 5.0 | 0.00 | 0.00 | 0.00 | 38 | 1021.4 |
| 20260903104743 | 77 | 219 | 3.0 | 4.0 | 0.00 | 0.00 | 0.00 | 39 | 1021.6 |
| 20260903102715 | 76 | 230 | 3.0 | 6.0 | 0.00 | 0.00 | 0.00 | 38 | 1021.8 |
| 20260903101700 | 77 | 248 | 3.0 | 7.0 | 0.00 | 0.00 | 0.00 | 38 | 1021.9 |
| 20260903100646 | 77 | 248 | 3.0 | 5.0 | 0.00 | 0.00 | 0.00 | 38 | 1022.1 |
| 20260903093602 | 77 | 239 | 4.0 | 8.0 | 0.00 | 0.00 | 0.00 | 39 | 1022.2 |
| 20260903093055 | 76 | 243 | 4.0 | 9.0 | 0.00 | 0.00 | 0.00 | 40 | 1022.1 |
| 20260903092547 | 76 | 253 | 4.0 | 9.0 | 0.00 | 0.00 | 0.00 | 40 | 1022.2 |
| 20260903091533 | 75 | 241 | 3.0 | 6.0 | 0.00 | 0.00 | 0.00 | 41 | 1022.1 |
| 20260903090519 | 75 | 255 | 2.0 | 8.0 | 0.00 | 0.00 | 0.00 | 42 | 1022.1 |
| 20260903090012 | 75 | 288 | 2.0 | 4.0 | 0.00 | 0.00 | 0.00 | 41 | 1022.0 |
| 20260903085505 | 76 | 235 | 3.0 | 7.0 | 0.00 | 0.00 | 0.00 | 41 | 1022.1 |
| 20260903083943 | 75 | 227 | 4.0 | 6.0 | 0.00 | 0.00 | 0.00 | 41 | 1022.4 |
| 20260903083436 | 76 | 252 | 4.0 | 8.0 | 0.00 | 0.00 | 0.00 | 40 | 1022.4 |
| 20260903082929 | 77 | 280 | 3.0 | 5.0 | 0.00 | 0.00 | 0.00 | 39 | 1022.3 |
| 20260903082421 | 77 | 245 | 3.0 | 4.0 | 0.00 | 0.00 | 0.00 | 39 | 1022.2 |
| 20260903080352 | 77 | 278 | 2.0 | 4.0 | 0.00 | 0.00 | 0.00 | 42 | 1022.2 |
| 20260903075338 | 77 | 238 | 3.0 | 5.0 | 0.00 | 0.00 | 0.00 | 42 | 1022.2 |
| 20260903074831 | 77 | 228 | 3.0 | 5.0 | 0.00 | 0.00 | 0.00 | 42 | 1022.2 |
| 20260903074323 | 76 | 215 | 3.0 | 6.0 | 0.00 | 0.00 | 0.00 | 44 | 1022.2 |
| 20260903073816 | 76 | 230 | 1.0 | 2.0 | 0.00 | 0.00 | 0.00 | 48 | 1022.3 |
| 20260903072802 | 74 | 178 | 2.0 | 4.0 | 0.00 | 0.00 | 0.00 | 51 | 1022.3 |
| 20260903071748 | 73 | 115 | 2.0 | 3.0 | 0.00 | 0.00 | 0.00 | 54 | 1022.3 |
| 20260903065213 | 70 | 166 | 1.0 | 2.0 | 0.00 | 0.00 | 0.00 | 66 | 1022.3 |
| 20260903064200 | 67 | 149 | 0.0 | 2.0 | 0.00 | 0.00 | 0.00 | 71 | 1022.3 |
| 20260903063653 | 66 | 27 | 0.0 | 1.0 | 0.00 | 0.00 | 0.00 | 73 | 1022.3 |
| 20260903063146 | 66 | 73 | 0.0 | 1.0 | 0.00 | 0.00 | 0.00 | 74 | 1022.2 |
| 20260903062640 | 65 | 140 | 1.0 | 2.0 | 0.00 | 0.00 | 0.00 | 75 | 1022.2 |
| 20260903060614 | 60 | 312 | 0.0 | 0.0 | 0.00 | 0.00 | 0.00 | 85 | 1022.3 |
| 20260903055601 | 58 | 315 | 0.0 | 0.0 | 0.00 | 0.00 | 0.00 | 83 | 1022.1 |
| 20260903054549 | 58 | 315 | 0.0 | 0.0 | 0.00 | 0.00 | 0.00 | 83 | 1022.0 |
| 20260903051511 | 57 | 315 | 0.0 | 0.0 | 0.00 | 0.00 | 0.00 | 83 | 1021.9 |
| 20260903051005 | 57 | 315 | 0.0 | 0.0 | 0.00 | 0.00 | 0.00 | 83 | 1021.9 |
| 20260903045953 | 57 | 315 | 0.0 | 0.0 | 0.00 | 0.00 | 0.00 | 83 | 1022.1 |
| 20260903045447 | 57 | 315 | 0.0 | 0.0 | 0.00 | 0.00 | 0.00 | 83 | 1022.0 |
| 20260903043928 | 57 | 315 | 0.0 | 0.0 | 0.00 | 0.00 | 0.00 | 82 | 1021.9 |
| 20260903043422 | 57 | 315 | 0.0 | 0.0 | 0.00 | 0.00 | 0.00 | 82 | 1022.0 |
| 20260903042409 | 57 | 315 | 0.0 | 0.0 | 0.00 | 0.00 | 0.00 | 81 | 1021.9 |
| 20260903041903 | 57 | 315 | 0.0 | 0.0 | 0.00 | 0.00 | 0.00 | 81 | 1022.0 |
| 20260903034825 | 58 | 315 | 0.0 | 0.0 | 0.00 | 0.00 | 0.00 | 82 | 1021.6 |
| 20260903033813 | 58 | 45 | 0.0 | 0.0 | 0.00 | 0.00 | 0.00 | 82 | 1021.7 |
| 20260903033306 | 58 | 45 | 0.0 | 0.0 | 0.00 | 0.00 | 0.00 | 82 | 1021.7 |
| 20260903032254 | 58 | 353 | 0.0 | 0.0 | 0.00 | 0.00 | 0.00 | 81 | 1021.7 |
| 20260903030735 | 58 | 312 | 0.0 | 0.0 | 0.00 | 0.00 | 0.00 | 81 | 1021.7 |
| 20260903025722 | 58 | 311 | 0.0 | 0.0 | 0.00 | 0.00 | 0.00 | 81 | 1021.7 |
| 20260903024710 | 58 | 284 | 0.0 | 1.0 | 0.00 | 0.00 | 0.00 | 81 | 1021.7 |
| 20260903024203 | 58 | 277 | 0.0 | 1.0 | 0.00 | 0.00 | 0.00 | 81 | 1021.7 |
| 20260903023151 | 58 | 315 | 0.0 | 0.0 | 0.00 | 0.00 | 0.00 | 81 | 1021.7 |
| 20260903022138 | 58 | 302 | 0.0 | 0.0 | 0.00 | 0.00 | 0.00 | 81 | 1021.7 |
| 20260903021632 | 58 | 319 | 0.0 | 0.0 | 0.00 | 0.00 | 0.00 | 81 | 1021.7 |
| 20260903021126 | 58 | 285 | 0.0 | 0.0 | 0.00 | 0.00 | 0.00 | 81 | 1021.7 |
| 20260903015607 | 58 | 315 | 0.0 | 0.0 | 0.00 | 0.00 | 0.00 | 81 | 1021.7 |
| 20260903015101 | 58 | 302 | 0.0 | 0.0 | 0.00 | 0.00 | 0.00 | 81 | 1021.7 |
| 20260903014555 | 58 | 316 | 0.0 | 0.0 | 0.00 | 0.00 | 0.00 | 80 | 1021.7 |
| 20260903014048 | 58 | 316 | 0.0 | 0.0 | 0.00 | 0.00 | 0.00 | 80 | 1021.7 |
| 20260903013542 | 58 | 315 | 0.0 | 0.0 | 0.00 | 0.00 | 0.00 | 80 | 1021.8 |
| 20260903013036 | 58 | 283 | 0.0 | 0.0 | 0.00 | 0.00 | 0.00 | 80 | 1021.7 |
| 20260903012024 | 58 | 225 | 0.0 | 0.0 | 0.00 | 0.00 | 0.00 | 80 | 1021.8 |
| 20260903010505 | 58 | 318 | 0.0 | 0.0 | 0.00 | 0.00 | 0.00 | 79 | 1021.8 |
| 20260903005452 | 58 | 341 | 0.0 | 0.0 | 0.00 | 0.00 | 0.00 | 78 | 1021.8 |
| 20260903003934 | 58 | 312 | 0.0 | 0.0 | 0.00 | 0.00 | 0.00 | 77 | 1021.8 |
| 20260903003427 | 58 | 315 | 0.0 | 0.0 | 0.00 | 0.00 | 0.00 | 77 | 1021.8 |
| 20260903002415 | 58 | 336 | 0.0 | 0.0 | 0.00 | 0.00 | 0.00 | 76 | 1021.7 |
| 20260903001402 | 58 | 315 | 0.0 | 0.0 | 0.00 | 0.00 | 0.00 | 76 | 1021.8 |
| 20260903000856 | 58 | 338 | 0.0 | 0.0 | 0.00 | 0.00 | 0.00 | 76 | 1021.8 |
| 20260903000350 | 58 | 306 | 0.0 | 0.0 | 0.00 | 0.00 | 0.00 | 76 | 1021.7 |
| 20260902235843 | 58 | 315 | 0.0 | 0.0 | 0.00 | 0.00 | 0.00 | 75 | 1021.7 |
| 20260902233819 | 58 | 315 | 0.0 | 0.0 | 0.00 | 0.00 | 0.00 | 75 | 1021.8 |
| 20260902232806 | 59 | 315 | 0.0 | 0.0 | 0.00 | 0.00 | 0.00 | 74 | 1021.8 |
| 20260902232300 | 59 | 315 | 0.0 | 0.0 | 0.00 | 0.00 | 0.00 | 74 | 1021.9 |
| 20260902231753 | 59 | 315 | 0.0 | 0.0 | 0.00 | 0.00 | 0.00 | 73 | 1021.8 |
| 20260902231247 | 59 | 315 | 0.0 | 0.0 | 0.00 | 0.00 | 0.00 | 73 | 1021.8 |
| 20260902223703 | 59 | 315 | 0.0 | 0.0 | 0.00 | 0.00 | 0.00 | 71 | 1021.9 |
| 20260902222650 | 60 | 315 | 0.0 | 0.0 | 0.00 | 0.00 | 0.00 | 71 | 1021.9 |
| 20260902222144 | 60 | 315 | 0.0 | 0.0 | 0.00 | 0.00 | 0.00 | 70 | 1021.9 |
| 20260902221637 | 60 | 309 | 0.0 | 0.0 | 0.00 | 0.00 | 0.00 | 69 | 1021.9 |
| 20260902214053 | 61 | 315 | 0.0 | 0.0 | 0.00 | 0.00 | 0.00 | 67 | 1021.8 |
| 20260902213546 | 62 | 315 | 0.0 | 0.0 | 0.00 | 0.00 | 0.00 | 67 | 1021.8 |
| 20260902213040 | 62 | 315 | 0.0 | 0.0 | 0.00 | 0.00 | 0.00 | 66 | 1021.7 |
| 20260902212533 | 62 | 315 | 0.0 | 0.0 | 0.00 | 0.00 | 0.00 | 65 | 1021.6 |
| 20260902212027 | 62 | 315 | 0.0 | 0.0 | 0.00 | 0.00 | 0.00 | 65 | 1021.6 |
| 20260902211014 | 63 | 315 | 0.0 | 0.0 | 0.00 | 0.00 | 0.00 | 65 | 1021.6 |
| 20260902204442 | 63 | 334 | 1.0 | 2.0 | 0.00 | 0.00 | 0.00 | 66 | 1021.6 |
| 20260902203429 | 63 | 353 | 0.0 | 0.0 | 0.00 | 0.00 | 0.00 | 66 | 1021.7 |
| 20260902202922 | 63 | 303 | 0.0 | 1.0 | 0.00 | 0.00 | 0.00 | 66 | 1021.8 |
| 20260902202416 | 63 | 283 | 1.0 | 3.0 | 0.00 | 0.00 | 0.00 | 66 | 1021.9 |
| 20260902201403 | 63 | 258 | 1.0 | 2.0 | 0.00 | 0.00 | 0.00 | 63 | 1021.7 |
| 20260902200856 | 63 | 55 | 1.0 | 2.0 | 0.00 | 0.00 | 0.00 | 62 | 1021.5 |
| 20260902200349 | 63 | 246 | 1.0 | 3.0 | 0.00 | 0.00 | 0.00 | 60 | 1021.7 |
| 20260902195843 | 63 | 315 | 0.0 | 0.0 | 0.00 | 0.00 | 0.00 | 58 | 1021.5 |
| 20260902195336 | 64 | 315 | 0.0 | 0.0 | 0.00 | 0.00 | 0.00 | 57 | 1021.3 |
| 20260902194830 | 64 | 315 | 0.0 | 0.0 | 0.00 | 0.00 | 0.00 | 56 | 1021.2 |
| 20260902193817 | 65 | 315 | 0.0 | 0.0 | 0.00 | 0.00 | 0.00 | 55 | 1021.2 |
| 20260902191243 | 66 | 315 | 0.0 | 0.0 | 0.00 | 0.00 | 0.00 | 53 | 1021.2 |
| 20260902183656 | 69 | 315 | 0.0 | 0.0 | 0.00 | 0.00 | 0.00 | 50 | 1021.1 |
| 20260902182643 | 69 | 315 | 0.0 | 0.0 | 0.00 | 0.00 | 0.00 | 49 | 1020.9 |
| 20260902182136 | 70 | 315 | 0.0 | 0.0 | 0.00 | 0.00 | 0.00 | 48 | 1020.8 |
| 20260902180615 | 70 | 315 | 0.0 | 0.0 | 0.00 | 0.00 | 0.00 | 47 | 1020.6 |
| 20260902175601 | 71 | 315 | 0.0 | 0.0 | 0.00 | 0.00 | 0.00 | 47 | 1020.6 |
| 20260902175054 | 71 | 315 | 0.0 | 0.0 | 0.00 | 0.00 | 0.00 | 46 | 1020.5 |
| 20260902174041 | 72 | 315 | 0.0 | 0.0 | 0.00 | 0.00 | 0.00 | 45 | 1020.4 |
| 20260902173027 | 72 | 315 | 0.0 | 0.0 | 0.00 | 0.00 | 0.00 | 44 | 1020.4 |
| 20260902172520 | 73 | 309 | 0.0 | 0.0 | 0.00 | 0.00 | 0.00 | 44 | 1020.4 |
| 20260902172013 | 73 | 315 | 0.0 | 0.0 | 0.00 | 0.00 | 0.00 | 43 | 1020.4 |
| 20260902170959 | 73 | 294 | 0.0 | 2.0 | 0.00 | 0.00 | 0.00 | 42 | 1020.4 |
| 20260902170452 | 74 | 332 | 0.0 | 2.0 | 0.00 | 0.00 | 0.00 | 42 | 1020.5 |
| 20260902165437 | 74 | 269 | 0.0 | 3.0 | 0.00 | 0.00 | 0.00 | 42 | 1020.4 |
| 20260902162902 | 76 | 311 | 0.0 | 2.0 | 0.00 | 0.00 | 0.00 | 40 | 1020.3 |
| 20260902161340 | 77 | 236 | 1.0 | 3.0 | 0.00 | 0.00 | 0.00 | 38 | 1020.3 |
| 20260902160833 | 77 | 263 | 1.0 | 2.0 | 0.00 | 0.00 | 0.00 | 38 | 1020.3 |
| 20260902160326 | 77 | 256 | 1.0 | 3.0 | 0.00 | 0.00 | 0.00 | 38 | 1020.3 |
| 20260902154257 | 78 | 256 | 1.0 | 2.0 | 0.00 | 0.00 | 0.00 | 37 | 1020.3 |
| 20260902153242 | 78 | 260 | 2.0 | 3.0 | 0.00 | 0.00 | 0.00 | 36 | 1020.4 |
| 20260902152735 | 78 | 279 | 2.0 | 3.0 | 0.00 | 0.00 | 0.00 | 36 | 1020.5 |
| 20260902152227 | 78 | 274 | 2.0 | 5.0 | 0.00 | 0.00 | 0.00 | 36 | 1020.5 |
| 20260902150705 | 78 | 225 | 2.0 | 4.0 | 0.00 | 0.00 | 0.00 | 36 | 1020.7 |
| 20260902150158 | 79 | 250 | 2.0 | 5.0 | 0.00 | 0.00 | 0.00 | 36 | 1020.8 |
| 20260902144636 | 79 | 216 | 2.0 | 5.0 | 0.00 | 0.00 | 0.00 | 36 | 1020.9 |
| 20260902144129 | 79 | 211 | 2.0 | 4.0 | 0.00 | 0.00 | 0.00 | 34 | 1020.8 |
| 20260902141551 | 80 | 172 | 2.0 | 5.0 | 0.00 | 0.00 | 0.00 | 34 | 1021.1 |